This demonstration page uses our WeatherBlox Daily Observations layout. Learn more.

Left ArrowRight Arrow

38.89511, -77.03637

Hourly Observations for May 11, 2017

Temp ( °F °C ) Dew Point ( °F °C ) Humidity (%) Winds ( mph kmh ) Pressure ( in mb ) Visibility ( mi km ) Precip ( " mm )
12:52 am 00:52 Mostly Cloudy 62 16.7 45 7.2 54 54 Calm 29.99 1016 10 16 0.00 0.00
12:55 am 00:55 Mostly Cloudy 62 16.7 46 7.8 56 56 S 3 6 30.00 1016 10 16 0.00 0.00
1:52 am 01:52 Cloudy 63 17.2 46 7.8 54 54 Calm 29.97 1015 10 16 0.00 0.00
2:52 am 02:52 Cloudy 63 17.2 48 8.9 58 58 Calm 29.95 1014 10 16 0.00 0.00
3:52 am 03:52 Mostly Cloudy 61 16.1 50 10 67 67 NE 7 11 29.94 1014 10 16 0.00 0.00
4:52 am 04:52 Mostly Cloudy 59 15 49 9.4 69 69 NE 7 11 29.93 1014 10 16 0.00 0.00
5:52 am 05:52 Mostly Cloudy 58 14.4 52 11.1 81 81 NE 8 13 29.94 1014 10 16 0.00 0.00
6:17 am 06:17 Cloudy 58 14.4 53 11.7 84 84 NE 7 11 29.94 1014 10 16 0.00 0.00
6:40 am 06:40 Cloudy with Thunderstorms 57 14 54 12 88 88 ENE 6 9 29.94 1014 10 16 0.00 0.00
6:47 am 06:47 Cloudy 57 14 54 12 88 88 NE 7 11 29.94 1014 10 16 0.00 0.00
6:52 am 06:52 Cloudy 59 15 54 12.2 83 83 NE 9 15 29.93 1014 10 16 0.00 0.00
7:16 am 07:16 Cloudy with Nearby Thunderstorms 59 15 55 12.8 87 87 NE 12 19 29.94 1014 10 16 0.00 0.00
7:35 am 07:35 Cloudy with Thunderstorms 59 15 54 12.2 83 83 NE 10 17 29.94 1014 10 16 0.00 0.00
7:46 am 07:46 Cloudy with Nearby Thunderstorms 59 15 54 12 82 82 ENE 13 20 29.94 1014 9 14 0.00 0.00
7:48 am 07:48 Cloudy with Nearby Thunderstorms 59 15 55 13 88 88 NE 10 17 29.94 1014 3 5 0.00 0.03
7:52 am 07:52 Cloudy with Nearby Thunderstorms 58 14.4 55 12.8 90 90 ENE 8 13 29.93 1014 4 6 0.01 0.25
8:02 am 08:02 Cloudy with Rain 58 14.4 55 12.8 90 90 ENE 9 15 29.94 1014 3 5 0.02 0.51
8:10 am 08:10 Cloudy with Rain 58 14.4 55 12.8 90 90 E 7 11 29.94 1014 3 5 0.05 1.27
8:52 am 08:52 Cloudy with Rain 57 13.9 56 13.3 96 96 ENE 7 11 29.93 1014 4 6 0.15 3.81
9:06 am 09:06 Cloudy with Rain 57 13.9 56 13.3 96 96 ENE 5 7 29.94 1014 4 6 0.03 0.76
9:17 am 09:17 Cloudy with Rain 57 13.9 56 13.3 96 96 E 6 9 29.94 1014 3 5 0.06 1.52
9:24 am 09:24 Cloudy with Rain 57 13.9 56 13.3 96 96 E 7 11 29.94 1014 3 4 0.08 2.03
9:52 am 09:52 Cloudy with Rain 57 13.9 56 13.3 96 96 ENE 14 22 29.91 1013 3 5 0.19 4.83
10:18 am 10:18 Cloudy with Rain 56 13.3 54 12.2 93 93 E 7 11 29.91 1013 4 6 0.10 2.54
10:48 am 10:48 Cloudy with Rain 55 13 54 12 94 94 E 7 11 29.91 1013 4 6 0.19 4.83
10:52 am 10:52 Cloudy with Rain 56 13.3 54 12.2 93 93 E 7 11 29.92 1013 4 6 0.20 5.08
11:03 am 11:03 Cloudy with Rain 56 13.3 54 12.2 93 93 E 7 11 29.94 1014 3 5 0.04 1.02
11:52 am 11:52 Cloudy with Light Rain 56 13.3 53 11.7 90 90 E 9 15 29.91 1013 4 6 0.16 4.06
12:52 pm 12:52 Cloudy with Rain 55 12.8 53 11.7 93 93 ESE 8 13 29.90 1013 4 6 0.08 2.03
12:57 pm 12:57 Cloudy with Light Rain 55 12.8 54 12.2 96 96 ESE 9 15 29.91 1013 4 6 0.01 0.25
1:17 pm 13:17 Cloudy with Light Rain 55 12.8 53 11.7 93 93 ESE 8 13 29.91 1013 5 8 0.03 0.76
1:52 pm 13:52 Cloudy with Light Rain 55 12.8 54 12.2 96 96 ESE 5 7 29.91 1013 4 6 0.05 1.27
2:05 pm 14:05 Cloudy with Light Rain 55 12.8 54 12.2 96 96 SE 5 7 29.91 1013 2 3 0.01 0.25
2:19 pm 14:19 Cloudy with Light Rain 55 12.8 53 11.7 93 93 SE 7 11 29.91 1013 4 6 0.03 0.76
2:29 pm 14:29 Cloudy with Rain 55 12.8 54 12.2 96 96 E 8 13 29.91 1013 3 5 0.04 1.02
2:33 pm 14:33 Cloudy with Light Rain 55 12.8 53 11.7 93 93 ESE 8 13 29.91 1013 3 4 0.05 1.27
2:35 pm 14:35 Cloudy with Light Rain 55 12.8 53 11.7 93 93 ESE 8 13 29.91 1013 3 4 0.05 1.27
2:52 pm 14:52 Cloudy with Light Rain 55 12.8 53 11.7 93 93 ESE 14 22 29.92 1013 3 5 0.06 1.52
2:58 pm 14:58 Cloudy with Light Rain 55 12.8 53 11.7 93 93 ESE 15 24 29.91 1013 3 5 0.01 0.25
3:03 pm 15:03 Cloudy with Light Rain 55 12.8 53 11.7 93 93 E 13 20 29.91 1013 3 4 0.01 0.25
3:13 pm 15:13 Cloudy with Light Rain 54 12.2 52 11.1 93 93 ESE 16 26 29.91 1013 3 5 0.02 0.51
3:29 pm 15:29 Cloudy 55 12.8 53 11.7 93 93 E 10 17 29.91 1013 7 11 0.02 0.51
3:52 pm 15:52 Cloudy with Light Rain 55 12.8 53 11.7 93 93 E 9 15 29.92 1013 9 14 0.02 0.51
3:59 pm 15:59 Cloudy with Light Rain 55 12.8 53 11.7 93 93 E 9 15 29.91 1013 4 6 0.00 0.03
4:03 pm 16:03 Cloudy with Light Rain 55 12.8 53 11.7 93 93 E 10 17 29.91 1013 3 4 0.01 0.25
4:22 pm 16:22 Cloudy with Light Rain 54 12.2 53 11.7 97 97 E 7 11 29.94 1014 3 5 0.02 0.51
4:29 pm 16:29 Cloudy with Light Rain 54 12.2 53 11.7 97 97 E 7 11 29.94 1014 4 6 0.02 0.51
4:39 pm 16:39 Cloudy with Light Rain 55 12.8 53 11.7 93 93 E 9 15 29.94 1014 3 4 0.03 0.76
4:52 pm 16:52 Cloudy with Light Rain 54 12.2 53 11.7 97 97 ENE 15 24 29.93 1014 2 3 0.04 1.02
4:59 pm 16:59 Cloudy with Light Rain 54 12.2 53 11.7 97 97 ENE 15 24 29.94 1014 2 3 0.01 0.25
5:09 pm 17:09 Cloudy with Light Rain 54 12.2 53 11.7 97 97 ENE 14 22 29.94 1014 3 5 0.01 0.25
5:22 pm 17:22 Cloudy with Light Rain 54 12.2 53 11.7 97 97 ENE 12 19 29.94 1014 4 6 0.02 0.51
5:52 pm 17:52 Cloudy with Light Rain 54 12.2 52 11.1 93 93 NE 12 19 29.95 1014 8 13 0.02 0.51
6:06 pm 18:06 Cloudy with Light Rain 53 11.7 52 11.1 96 96 ENE 14 22 29.94 1014 3 5 0.01 0.25
6:16 pm 18:16 Cloudy with Light Rain 53 11.7 52 11.1 96 96 ENE 12 19 29.94 1014 2 3 0.02 0.51
6:41 pm 18:41 Cloudy with Light Rain 53 11.7 51 10.6 93 93 ENE 12 19 29.97 1015 3 5 0.05 1.27
6:52 pm 18:52 Cloudy with Light Rain 53 11.7 51 10.6 93 93 E 12 19 29.96 1015 4 6 0.05 1.27
7:25 pm 19:25 Cloudy with Light Rain 52 11.1 50 10 93 93 E 12 19 29.97 1015 4 6 0.01 0.25
7:52 pm 19:52 Cloudy 52 11.1 51 10.6 97 97 ENE 6 9 29.98 1015 9 14 0.01 0.25
8:04 pm 20:04 Cloudy 52 11.1 50 10 93 93 ENE 8 13 29.97 1015 10 16 0.00 0.00
8:48 pm 20:48 Cloudy 54 12 52 11 94 94 NE 8 13 30.00 1016 10 16 0.00 0.00
8:52 pm 20:52 Cloudy 53 11.7 51 10.6 93 93 NE 8 13 29.99 1016 10 16 0.00 0.00
9:52 pm 21:52 Cloudy 53 11.7 49 9.4 86 86 ENE 8 13 30.00 1016 10 16 0.00 0.00
10:52 pm 22:52 Cloudy 53 11.7 49 9.4 86 86 ENE 5 7 30.01 1016 10 16 0.00 0.00
11:52 pm 23:52 Cloudy 53 11.7 49 9.4 86 86 NE 7 11 30.01 1016 10 16 0.00 0.00

Powered by AerisWeather